Location: Antichan
(42.9728°N, 0.6667°E)
Time: 17:35:42
(UTC+00:00)

MetOp-A - Pass Details

Date: 15 August 2020
Orbit: 819 x 821 km, 98.5° (Epoch: 18 September)

Event Time Altitude Azimuth Distance (km) Brightness Sun altitude
Exits shadow 20:02:44 - 169° (S) 3,143 6.8 -11.3°
Reaches altitude 10° 20:04:35 10° 171° (S) 2,410 6.2 -11.6°
Maximum altitude 20:09:56 76° 257° (WSW) 848 4.3 -12.5°
Drops below altitude 10° 20:15:18 10° 343° (NNW) 2,426 7.4 -13.3°
Sets 20:17:40 0° 345° (NNW) 3,363 8.1 -13.7°
